| time (UTC) | temp F | wind direction | speed MPH | gust MPH | rain 1hr in | rain 24hr in | rain mn in | humidity % | barometer mb |
| 20260504023521 | 55 | 144 | 3.0 | 9.0 | 0.00 | 0.00 | 0.00 | 60 | 1011.8 |
| 20260504023040 | 55 | 184 | 3.0 | 9.0 | 0.00 | 0.00 | 0.00 | 60 | 1011.8 |
| 20260504022521 | 55 | 178 | 4.0 | 7.0 | 0.00 | 0.00 | 0.00 | 60 | 1011.7 |
| 20260504022023 | 55 | 186 | 3.0 | 7.0 | 0.00 | 0.00 | 0.00 | 60 | 1011.7 |
| 20260504021536 | 55 | 158 | 2.0 | 8.0 | 0.00 | 0.00 | 0.00 | 60 | 1011.8 |
| 20260504021020 | 55 | 178 | 3.0 | 9.0 | 0.00 | 0.00 | 0.00 | 60 | 1011.8 |
| 20260504020520 | 55 | 174 | 3.0 | 10.0 | 0.00 | 0.00 | 0.00 | 59 | 1011.8 |
| 20260504020040 | 55 | 179 | 4.0 | 10.0 | 0.00 | 0.00 | 0.00 | 59 | 1011.8 |
| 20260504015521 | 56 | 179 | 3.0 | 8.0 | 0.00 | 0.00 | 0.00 | 58 | 1011.7 |
| 20260504015022 | 56 | 186 | 4.0 | 9.0 | 0.00 | 0.00 | 0.00 | 57 | 1011.7 |
| 20260504014558 | 56 | 164 | 5.0 | 9.0 | 0.00 | 0.00 | 0.00 | 57 | 1011.7 |
| 20260504014024 | 56 | 183 | 3.0 | 8.0 | 0.00 | 0.00 | 0.00 | 56 | 1011.7 |
| 20260504013525 | 57 | 202 | 4.0 | 11.0 | 0.00 | 0.00 | 0.00 | 56 | 1011.7 |
| 20260504013045 | 57 | 198 | 4.0 | 11.0 | 0.00 | 0.00 | 0.00 | 56 | 1011.7 |
| 20260504012522 | 57 | 199 | 5.0 | 11.0 | 0.00 | 0.00 | 0.00 | 55 | 1011.7 |
| 20260504012021 | 57 | 189 | 4.0 | 11.0 | 0.00 | 0.00 | 0.00 | 55 | 1011.7 |
| 20260504011536 | 57 | 221 | 4.0 | 9.0 | 0.00 | 0.00 | 0.00 | 55 | 1011.7 |
| 20260504011019 | 57 | 181 | 3.0 | 9.0 | 0.00 | 0.00 | 0.00 | 55 | 1011.7 |
| 20260504010519 | 57 | 171 | 3.0 | 12.0 | 0.00 | 0.00 | 0.00 | 55 | 1011.7 |
| 20260504010037 | 57 | 173 | 3.0 | 12.0 | 0.00 | 0.00 | 0.00 | 54 | 1011.7 |
| 20260504005523 | 57 | 189 | 5.0 | 10.0 | 0.00 | 0.00 | 0.00 | 54 | 1011.7 |
| 20260504005021 | 57 | 184 | 5.0 | 14.0 | 0.00 | 0.00 | 0.00 | 53 | 1011.7 |
| 20260504004543 | 57 | 174 | 4.0 | 14.0 | 0.00 | 0.00 | 0.00 | 53 | 1011.7 |
| 20260504004019 | 57 | 209 | 3.0 | 9.0 | 0.00 | 0.00 | 0.00 | 53 | 1011.7 |
| 20260504003521 | 58 | 278 | 4.0 | 15.0 | 0.00 | 0.00 | 0.00 | 52 | 1011.6 |
| 20260504003038 | 58 | 194 | 3.0 | 15.0 | 0.00 | 0.00 | 0.00 | 52 | 1011.6 |
| 20260504002517 | 58 | 202 | 6.0 | 14.0 | 0.00 | 0.00 | 0.00 | 51 | 1011.6 |
| 20260504002017 | 58 | 198 | 3.0 | 10.0 | 0.00 | 0.00 | 0.00 | 50 | 1011.6 |
| 20260504001543 | 58 | 205 | 4.0 | 10.0 | 0.00 | 0.00 | 0.00 | 50 | 1011.7 |
| 20260504001020 | 58 | 215 | 4.0 | 10.0 | 0.00 | 0.00 | 0.00 | 50 | 1011.5 |
| 20260504000520 | 58 | 190 | 3.0 | 9.0 | 0.00 | 0.00 | 0.00 | 49 | 1011.6 |
| 20260504000037 | 58 | 193 | 4.0 | 10.0 | 0.00 | 0.00 | 0.00 | 49 | 1011.6 |
| 20260503235519 | 58 | 227 | 3.0 | 10.0 | 0.00 | 0.00 | 0.00 | 49 | 1011.7 |
| 20260503235019 | 58 | 203 | 4.0 | 10.0 | 0.00 | 0.00 | 0.00 | 49 | 1011.7 |
| 20260503234545 | 59 | 227 | 3.0 | 11.0 | 0.00 | 0.00 | 0.00 | 48 | 1011.7 |
| 20260503234019 | 59 | 157 | 4.0 | 14.0 | 0.00 | 0.00 | 0.00 | 48 | 1011.6 |
| 20260503233517 | 59 | 204 | 4.0 | 15.0 | 0.00 | 0.00 | 0.00 | 47 | 1011.6 |
| 20260503233041 | 59 | 221 | 6.0 | 19.0 | 0.00 | 0.00 | 0.00 | 48 | 1011.8 |
| 20260503232519 | 59 | 186 | 5.0 | 19.0 | 0.00 | 0.00 | 0.00 | 47 | 1011.8 |
| 20260503232017 | 59 | 250 | 5.0 | 16.0 | 0.00 | 0.00 | 0.00 | 46 | 1011.7 |
| 20260503231542 | 59 | 212 | 6.0 | 16.0 | 0.00 | 0.00 | 0.00 | 46 | 1011.7 |
| 20260503231022 | 60 | 233 | 5.0 | 16.0 | 0.00 | 0.00 | 0.00 | 47 | 1011.8 |
| 20260503230520 | 60 | 190 | 6.0 | 15.0 | 0.00 | 0.00 | 0.00 | 45 | 1011.7 |
| 20260503230042 | 60 | 201 | 5.0 | 15.0 | 0.00 | 0.00 | 0.00 | 45 | 1011.7 |
| 20260503225521 | 60 | 193 | 5.0 | 19.0 | 0.00 | 0.00 | 0.00 | 44 | 1011.7 |
| 20260503225022 | 60 | 213 | 7.0 | 19.0 | 0.00 | 0.00 | 0.00 | 44 | 1011.6 |
| 20260503224536 | 60 | 207 | 6.0 | 15.0 | 0.00 | 0.00 | 0.00 | 45 | 1011.8 |
| 20260503224018 | 60 | 215 | 5.0 | 18.0 | 0.00 | 0.00 | 0.00 | 45 | 1011.9 |
| 20260503223521 | 60 | 175 | 6.0 | 18.0 | 0.00 | 0.00 | 0.00 | 44 | 1012.1 |
| 20260503223035 | 60 | 171 | 3.0 | 14.0 | 0.00 | 0.00 | 0.00 | 45 | 1012.2 |
| 20260503222517 | 60 | 180 | 4.0 | 14.0 | 0.00 | 0.00 | 0.00 | 50 | 1012.1 |
| 20260503222022 | 60 | 225 | 5.0 | 17.0 | 0.00 | 0.00 | 0.00 | 43 | 1012.2 |
| 20260503221541 | 61 | 198 | 6.0 | 17.0 | 0.00 | 0.00 | 0.00 | 43 | 1012.0 |
| 20260503221018 | 60 | 219 | 5.0 | 13.0 | 0.00 | 0.00 | 0.00 | 45 | 1012.0 |
| 20260503220519 | 60 | 193 | 5.0 | 13.0 | 0.00 | 0.00 | 0.00 | 44 | 1012.3 |
| 20260503220047 | 60 | 186 | 5.0 | 15.0 | 0.00 | 0.00 | 0.00 | 44 | 1012.3 |
| 20260503215520 | 60 | 155 | 5.0 | 16.0 | 0.00 | 0.00 | 0.00 | 48 | 1012.4 |
| 20260503215017 | 60 | 180 | 6.0 | 16.0 | 0.00 | 0.00 | 0.00 | 44 | 1012.6 |
| 20260503214535 | 60 | 213 | 7.0 | 19.0 | 0.00 | 0.00 | 0.00 | 43 | 1012.5 |
| 20260503214017 | 60 | 169 | 9.0 | 19.0 | 0.00 | 0.00 | 0.00 | 43 | 1012.7 |
| 20260503213517 | 61 | 129 | 7.0 | 16.0 | 0.00 | 0.00 | 0.00 | 42 | 1012.7 |
| 20260503213032 | 61 | 227 | 3.0 | 14.0 | 0.00 | 0.00 | 0.00 | 43 | 1013.0 |
| 20260503212521 | 61 | 207 | 5.0 | 14.0 | 0.00 | 0.00 | 0.00 | 41 | 1013.1 |
| 20260503212021 | 61 | 175 | 5.0 | 14.0 | 0.00 | 0.00 | 0.00 | 42 | 1013.3 |
| 20260503211541 | 61 | 217 | 4.0 | 16.0 | 0.00 | 0.00 | 0.00 | 43 | 1013.4 |
| 20260503211020 | 61 | 184 | 6.0 | 16.0 | 0.00 | 0.00 | 0.00 | 40 | 1013.5 |
| 20260503210520 | 62 | 213 | 6.0 | 16.0 | 0.00 | 0.00 | 0.00 | 41 | 1013.6 |
| 20260503210040 | 62 | 236 | 5.0 | 17.0 | 0.00 | 0.00 | 0.00 | 41 | 1013.6 |
| 20260503205521 | 62 | 203 | 8.0 | 18.0 | 0.00 | 0.00 | 0.00 | 40 | 1013.6 |
| 20260503205019 | 62 | 199 | 9.0 | 18.0 | 0.00 | 0.00 | 0.00 | 40 | 1013.7 |
| 20260503204539 | 61 | 209 | 7.0 | 16.0 | 0.00 | 0.00 | 0.00 | 39 | 1013.7 |
| 20260503204020 | 61 | 203 | 5.0 | 16.0 | 0.00 | 0.00 | 0.00 | 40 | 1013.8 |
| 20260503203521 | 60 | 210 | 5.0 | 11.0 | 0.00 | 0.00 | 0.00 | 43 | 1013.8 |
| 20260503203045 | 60 | 193 | 3.0 | 12.0 | 0.00 | 0.00 | 0.00 | 41 | 1013.9 |
| 20260503202521 | 60 | 246 | 4.0 | 12.0 | 0.00 | 0.00 | 0.00 | 40 | 1014.2 |
| 20260503202022 | 60 | 243 | 3.0 | 11.0 | 0.00 | 0.00 | 0.00 | 41 | 1014.2 |
| 20260503201542 | 60 | 258 | 5.0 | 11.0 | 0.00 | 0.00 | 0.00 | 39 | 1014.4 |
| 20260503201020 | 60 | 185 | 4.0 | 13.0 | 0.00 | 0.00 | 0.00 | 40 | 1014.7 |
| 20260503200520 | 60 | 235 | 6.0 | 13.0 | 0.00 | 0.00 | 0.00 | 40 | 1015.0 |
| 20260503200047 | 60 | 235 | 4.0 | 18.0 | 0.00 | 0.00 | 0.00 | 41 | 1015.1 |
| 20260503195520 | 60 | 238 | 7.0 | 18.0 | 0.00 | 0.00 | 0.00 | 38 | 1015.0 |
| 20260503195020 | 60 | 193 | 3.0 | 14.0 | 0.00 | 0.00 | 0.00 | 41 | 1015.0 |
| 20260503194542 | 60 | 232 | 6.0 | 16.0 | 0.00 | 0.00 | 0.00 | 40 | 1015.0 |
| 20260503194020 | 60 | 217 | 6.0 | 16.0 | 0.00 | 0.00 | 0.00 | 38 | 1015.1 |
| 20260503193520 | 60 | 147 | 6.0 | 15.0 | 0.00 | 0.00 | 0.00 | 38 | 1015.1 |
| 20260503193043 | 60 | 212 | 5.0 | 15.0 | 0.00 | 0.00 | 0.00 | 38 | 1015.1 |
| 20260503192520 | 60 | 213 | 5.0 | 14.0 | 0.00 | 0.00 | 0.00 | 39 | 1015.2 |
| 20260503192021 | 61 | 202 | 6.0 | 14.0 | 0.00 | 0.00 | 0.00 | 37 | 1015.2 |
| 20260503191542 | 61 | 273 | 6.0 | 11.0 | 0.00 | 0.00 | 0.00 | 40 | 1015.0 |
| 20260503191021 | 60 | 250 | 4.0 | 10.0 | 0.00 | 0.00 | 0.00 | 39 | 1015.2 |
| 20260503190520 | 60 | 244 | 4.0 | 14.0 | 0.00 | 0.00 | 0.00 | 46 | 1015.3 |
| 20260503190042 | 59 | 234 | 4.0 | 14.0 | 0.00 | 0.00 | 0.00 | 39 | 1015.5 |
| 20260503185520 | 59 | 202 | 4.0 | 11.0 | 0.00 | 0.00 | 0.00 | 41 | 1015.8 |
| 20260503185023 | 59 | 228 | 3.0 | 11.0 | 0.00 | 0.00 | 0.00 | 40 | 1016.0 |
| 20260503184554 | 59 | 232 | 4.0 | 12.0 | 0.00 | 0.00 | 0.00 | 40 | 1016.0 |
| 20260503184019 | 59 | 235 | 5.0 | 17.0 | 0.00 | 0.00 | 0.00 | 38 | 1016.1 |
| 20260503183520 | 59 | 217 | 5.0 | 17.0 | 0.00 | 0.00 | 0.00 | 37 | 1016.2 |
| 20260503183051 | 60 | 174 | 5.0 | 16.0 | 0.00 | 0.00 | 0.00 | 44 | 1016.2 |
| 20260503182520 | 60 | 223 | 7.0 | 16.0 | 0.00 | 0.00 | 0.00 | 41 | 1016.2 |
| 20260503182021 | 61 | 192 | 5.0 | 12.0 | 0.00 | 0.00 | 0.00 | 38 | 1016.2 |
| 20260503181542 | 61 | 245 | 5.0 | 14.0 | 0.00 | 0.00 | 0.00 | 38 | 1016.3 |
| 20260503181021 | 61 | 221 | 6.0 | 14.0 | 0.00 | 0.00 | 0.00 | 40 | 1016.3 |
| 20260503180521 | 61 | 225 | 7.0 | 15.0 | 0.00 | 0.00 | 0.00 | 38 | 1016.4 |
| 20260503180043 | 61 | 211 | 6.0 | 18.0 | 0.00 | 0.00 | 0.00 | 38 | 1016.5 |
| 20260503175521 | 60 | 199 | 6.0 | 18.0 | 0.00 | 0.00 | 0.00 | 40 | 1016.6 |
| 20260503175025 | 60 | 202 | 6.0 | 13.0 | 0.00 | 0.00 | 0.00 | 39 | 1016.7 |
| 20260503174540 | 60 | 207 | 6.0 | 13.0 | 0.00 | 0.00 | 0.00 | 36 | 1016.7 |
| 20260503174021 | 60 | 237 | 6.0 | 21.0 | 0.00 | 0.00 | 0.00 | 39 | 1016.8 |
| 20260503173524 | 60 | 146 | 7.0 | 21.0 | 0.00 | 0.00 | 0.00 | 38 | 1016.9 |
| 20260503173037 | 60 | 175 | 6.0 | 19.0 | 0.00 | 0.00 | 0.00 | 39 | 1017.0 |
| 20260503172521 | 59 | 235 | 7.0 | 17.0 | 0.00 | 0.00 | 0.00 | 39 | 1017.1 |
| 20260503172021 | 59 | 228 | 4.0 | 16.0 | 0.00 | 0.00 | 0.00 | 43 | 1017.2 |
| 20260503171535 | 59 | 237 | 7.0 | 16.0 | 0.00 | 0.00 | 0.00 | 39 | 1017.2 |
| 20260503171020 | 60 | 154 | 6.0 | 16.0 | 0.00 | 0.00 | 0.00 | 37 | 1017.1 |
| 20260503170521 | 60 | 215 | 8.0 | 16.0 | 0.00 | 0.00 | 0.00 | 38 | 1017.1 |
| 20260503150520 | 56 | 209 | 5.0 | 10.0 | 0.00 | 0.00 | 0.00 | 57 | 1018.9 |
| 20260503131020 | 47 | 230 | 3.0 | 11.0 | 0.00 | 0.00 | 0.00 | 62 | 1018.9 |
| 20260503130520 | 46 | 217 | 3.0 | 11.0 | 0.00 | 0.00 | 0.00 | 62 | 1018.9 |
| 20260503110520 | 39 | 227 | 1.0 | 5.0 | 0.00 | 0.00 | 0.00 | 70 | 1018.4 |
| 20260503081604 | 39 | 0 | 1.0 | 4.0 | 0.00 | 0.00 | 0.00 | 70 | 1017.8 |
| 20260503081021 | 39 | 221 | 1.0 | 3.0 | 0.00 | 0.00 | 0.00 | 70 | 1017.8 |
| 20260503080520 | 39 | 221 | 0.0 | 3.0 | 0.00 | 0.00 | 0.00 | 69 | 1017.7 |
| 20260503072522 | 39 | 0 | 0.0 | 3.0 | 0.00 | 0.00 | 0.00 | 68 | 1017.7 |
| 20260503072021 | 39 | 229 | 0.0 | 3.0 | 0.00 | 0.00 | 0.00 | 68 | 1017.7 |
| 20260503071538 | 39 | 0 | 0.0 | 3.0 | 0.00 | 0.00 | 0.00 | 68 | 1017.7 |
| 20260503071020 | 39 | 254 | 0.0 | 3.0 | 0.00 | 0.00 | 0.00 | 68 | 1017.8 |
| 20260503070522 | 39 | 0 | 0.0 | 3.0 | 0.00 | 0.00 | 0.00 | 68 | 1017.8 |
| 20260503055020 | 40 | 281 | 1.0 | 3.0 | 0.00 | 0.00 | 0.00 | 66 | 1018.3 |
| 20260503054545 | 40 | 0 | 0.0 | 2.0 | 0.00 | 0.00 | 0.00 | 66 | 1018.3 |
| 20260503054022 | 40 | 0 | 0.0 | 2.0 | 0.00 | 0.00 | 0.00 | 66 | 1018.2 |
| 20260503053521 | 40 | 0 | 0.0 | 2.0 | 0.00 | 0.00 | 0.00 | 66 | 1018.3 |
| 20260503053034 | 40 | 342 | 0.0 | 1.0 | 0.00 | 0.00 | 0.00 | 66 | 1018.3 |
| 20260503052521 | 40 | 0 | 0.0 | 1.0 | 0.00 | 0.00 | 0.00 | 66 | 1018.4 |
| 20260503052021 | 40 | 0 | 0.0 | 1.0 | 0.00 | 0.00 | 0.00 | 66 | 1018.4 |
| 20260503051533 | 40 | 0 | 0.0 | 0.0 | 0.00 | 0.00 | 0.00 | 66 | 1018.4 |
| 20260503051020 | 40 | 0 | 0.0 | 0.0 | 0.00 | 0.00 | 0.00 | 66 | 1018.4 |
| 20260503050522 | 40 | 0 | 0.0 | 0.0 | 0.00 | 0.00 | 0.00 | 66 | 1018.4 |
| 20260503050041 | 40 | 0 | 0.0 | 0.0 | 0.00 | 0.00 | 0.00 | 67 | 1018.4 |
| 20260503045521 | 40 | 0 | 0.0 | 1.0 | 0.00 | 0.00 | 0.00 | 66 | 1018.4 |
| 20260503045020 | 40 | 0 | 0.0 | 1.0 | 0.00 | 0.00 | 0.00 | 67 | 1018.4 |
| 20260503044542 | 40 | 0 | 0.0 | 1.0 | 0.00 | 0.00 | 0.00 | 67 | 1018.4 |
| 20260503044020 | 40 | 0 | 0.0 | 1.0 | 0.00 | 0.00 | 0.00 | 67 | 1018.4 |
| 20260503043520 | 40 | 344 | 0.0 | 1.0 | 0.00 | 0.00 | 0.00 | 66 | 1018.3 |
| 20260503043042 | 40 | 0 | 0.0 | 0.0 | 0.00 | 0.00 | 0.00 | 66 | 1018.2 |
| 20260503042521 | 40 | 0 | 0.0 | 0.0 | 0.00 | 0.00 | 0.00 | 66 | 1018.3 |
| 20260503042021 | 40 | 0 | 0.0 | 1.0 | 0.00 | 0.00 | 0.00 | 66 | 1018.3 |
| 20260503041543 | 40 | 0 | 0.0 | 2.0 | 0.00 | 0.00 | 0.00 | 66 | 1018.3 |
| 20260503041020 | 40 | 0 | 0.0 | 2.0 | 0.00 | 0.00 | 0.00 | 65 | 1018.3 |
| 20260503040521 | 41 | 0 | 0.0 | 0.0 | 0.00 | 0.00 | 0.00 | 65 | 1018.4 |
| 20260503040047 | 41 | 0 | 0.0 | 0.0 | 0.00 | 0.00 | 0.00 | 65 | 1018.3 |
| 20260503035521 | 41 | 0 | 0.0 | 0.0 | 0.00 | 0.00 | 0.00 | 65 | 1018.3 |
| 20260503035022 | 41 | 0 | 0.0 | 0.0 | 0.00 | 0.00 | 0.00 | 66 | 1018.3 |
| 20260503034547 | 41 | 0 | 0.0 | 0.0 | 0.00 | 0.00 | 0.00 | 65 | 1018.4 |
| 20260503034021 | 41 | 0 | 0.0 | 0.0 | 0.00 | 0.00 | 0.00 | 64 | 1018.3 |
| 20260503033518 | 41 | 0 | 0.0 | 0.0 | 0.00 | 0.00 | 0.00 | 64 | 1018.3 |
| 20260503033058 | 41 | 0 | 0.0 | 0.0 | 0.00 | 0.00 | 0.00 | 64 | 1018.4 |
| 20260503032520 | 41 | 0 | 0.0 | 0.0 | 0.00 | 0.00 | 0.00 | 64 | 1018.3 |
| 20260503032025 | 41 | 0 | 0.0 | 0.0 | 0.00 | 0.00 | 0.00 | 65 | 1018.4 |
| 20260503031551 | 41 | 0 | 0.0 | 0.0 | 0.00 | 0.00 | 0.00 | 66 | 1018.3 |
| 20260503031023 | 41 | 0 | 0.0 | 0.0 | 0.00 | 0.00 | 0.00 | 66 | 1018.4 |
| 20260503030521 | 41 | 0 | 0.0 | 0.0 | 0.00 | 0.00 | 0.00 | 66 | 1018.5 |
| 20260503030034 | 41 | 0 | 0.0 | 0.0 | 0.00 | 0.00 | 0.00 | 66 | 1018.5 |
| 20260503025520 | 41 | 0 | 0.0 | 0.0 | 0.00 | 0.00 | 0.00 | 66 | 1018.5 |
| 20260503025020 | 41 | 0 | 0.0 | 0.0 | 0.00 | 0.00 | 0.00 | 66 | 1018.4 |
| 20260503024533 | 42 | 0 | 0.0 | 0.0 | 0.00 | 0.00 | 0.00 | 66 | 1018.3 |
| 20260503024021 | 42 | 0 | 0.0 | 0.0 | 0.00 | 0.00 | 0.00 | 65 | 1018.4 |